Torna al catalogo

CZ-6A DEB

AttivoSSO
NORAD 54497·DEBRIS·🇨🇳 China

Lanciato Nov 11, 2022 da Taiyuan Satellite Launch Center

Loading…

Prossimi Passaggi (prossime 24 ore)

TLE

AggiornatoSource: Space-Track

Epoca: Sep 14, 2026, 11:18 UTC

1 54497U 22151HZ  26257.47085900  .00000617  00000-0  35416-3 0  9991
2 54497  98.8436 257.6269 0049941  74.9756 285.6936 14.12396840197128

Traccia CZ-6A DEB in tempo reale con AllMySat

Download on the App Store